RADUGA 7 [-]

Last updated on Wed Jun 28 2023 00:02:57 GMT+0000 (Coordinated Universal Time)

1 12003U 80081A 23177.74285396 -.00000256 00000+0 00000+0 0 9999 2 12003 8.5649 300.0632 0008930 263.2439 296.4744 1.00220246112527
UTC large
Height (km)
Speed (km/s)
/
Latitude / Longitude
Inclination (degrees)
Orbital Period (minutes)
Azimuth
Elevation
Range (km)
Doppler Factor

Next 0 passes for location: London (51.5072 / 0.1276)

Sorry there are no passes over London.
RADUGA 7 [-]